Theta_e
314 314 315 315 318 319 320 321 322 325 326 327 329 329 330 333 339 340 341 342 343 340 339 340 345 345 342 337 337 339 336 334 332 337 340 341 340 339 338 336 339 339 337
313 314 311 314 315 315 317 319 321 323 326 327 328 328 327 328 332 335 335 338 338 340 340 336 335 341 341 340 341 339 338 338 332 335 338 338 336 341 339 335 335 335 339
311 311 312 313 312 314 316 318 320 321 322 326 327 327 326 325 327 329 330 332 335 337 338 336 334 336 337 339 338 337 339 339 337 333 333 336 335 335 335 334 334 336 335
310 309 309 310 311 312 314 316 316 316 318 320 323 325 325 324 324 326 329 330 332 333 335 336 337 335 337 339 336 337 339 337 336 333 332 332 333 338 333 330 329 332 332
308 308 310 311 312 312 312 313 314 315 316 317 318 320 323 323 320 321 325 326 326 327 329 331 334 332 327 328 333 333 330 330 334 333 330 330 328 331 330 331 328 330 332
308 307 309 311 311 312 313 313 313 315 315 315 315 316 318 317 307 303 310 324 325 325 324 327 330 329 327 320 318 318 325 330 330 331 331 330 332 333 332 330 328 326 324
308 308 309 310 310 311 312 312 312 313 315 315 315 315 316 318 305 300 303 320 322 324 324 324 323 327 327 331 321 316 317 313 316 329 331 332 333 334 332 331 330 328 327
307 307 308 309 310 311 312 312 312 313 313 313 314 315 315 315 305 301 300 317 319 321 323 324 325 324 325 320 324 324 325 329 331 331 328 331 333 335 335 332 332 333 332
307 307 308 309 309 309 309 311 313 312 313 313 314 314 315 315 305 300 304 316 315 317 319 321 323 324 306 304 321 320 320 322 318 313 310 306 304 305 312 326 324 321 323
306 307 308 309 310 310 311 311 312 313 312 312 313 315 312 314 306 301 304 313 314 313 316 318 310 313 303 303 319 320 317 318 319 320 319 318 315 322 307 321 327 321 322
308 308 309 310 310 311 312 312 312 312 312 312 312 314 314 313 314 302 298 311 311 311 312 313 314 301 298 299 298 317 316 315 314 315 316 316 317 322 324 327 327 325 323
309 308 309 309 309 310 311 311 312 311 310 310 310 310 311 313 306 304 300 298 304 305 308 311 312 299 296 295 297 301 299 300 313 315 315 316 316 317 320 325 329 327 330
308 309 310 310 310 310 309 309 308 309 308 308 307 308 308 310 311 302 297 298 301 304 309 307 299 297 295 299 298 296 296 306 309 311 313 316 318 320 323 323 325 329 331
308 309 309 309 307 309 308 307 307 306 306 306 306 306 306 307 309 311 312 312 306 308 305 308 307 300 298 302 303 310 313 315 314 313 313 315 316 315 318 320 320 320 321
307 307 307 305 302 303 304 305 305 307 304 303 304 305 304 304 305 301 301 303 302 300 297 307 311 311 309 310 311 312 314 315 312 311 309 309 309 312 316 319 318 318 316
302 302 303 300 299 300 302 303 298 295 295 293 293 295 302 298 296 295 294 293 293 292 299 303 306 308 308 309 309 309 311 311 311 309 307 307 306 307 308 312 316 314 316
299 299 301 299 301 301 300 297 296 298 296 294 293 293 292 293 293 292 291 291 290 291 296 302 306 305 304 305 308 309 311 312 313 308 307 308 307 307 305 307 309 311 311
301 297 301 299 299 300 300 299 300 298 297 300 299 296 296 293 291 291 291 291 300 297 298 300 306 308 306 306 307 309 309 309 310 307 307 308 309 309 307 307 308 309 311
300 299 299 299 299 299 299 299 299 298 298 299 301 299 299 294 292 292 292 299 303 306 304 302 306 306 307 308 307 308 307 308 307 308 307 308 309 309 307 307 308 297 300
298 296 295 298 299 299 300 299 298 298 299 300 300 300 299 298 301 302 303 301 299 299 300 301 304 306 306 306 305 304 305 305 305 306 306 307 307 308 306 306 307 306 306
297 298 291 298 298 298 298 298 299 298 298 298 298 297 287 297 299 299 298 298 298 298 298 300 300 300 301 301 301 302 305 304 303 303 304 305 304 303 305 306 306 306 306
297 297 298 297 298 298 297 297 297 297 296 296 296 297 289 297 296 296 296 296 297 298 298 298 297 298 298 299 301 301 300 300 300 300 300 300 301 303 303 304 305 305 304
297 297 297 297 297 293 295 296 295 295 295 294 294 293 294 295 296 297 297 299 300 299 297 296 295 296 298 301 301 300 298 298 299 298 297 298 298 298 300 304 302 303 302
297 298 299 298 296 295 294 293 297 292 294 293 292 292 292 294 297 298 298 299 299 297 296 295 295 295 296 295 296 297 297 298 297 295 295 297 296 296 298 300 301 302 300
299 298 298 298 297 297 297 295 294 296 296 294 294 294 294 296 296 297 296 296 296 297 294 295 298 294 293 297 300 300 293 287 290 289 294 297 298 299 299 300 300 300 300
299 298 297 297 296 296 296 295 295 296 295 293 293 293 293 293 294 292 290 291 290 291 293 294 295 298 299 300 299 289 287 287 291 287 296 300 299 298 299 299 299 298 299
Wind_Speed
11 11 11 10 9 7 7 7 7 7 5 4 5 5 6 6 7 6 6 5 3 3 4 6 10 10 6 6 6 8 7 7 8 9 6 6 9 10 9 5 6 7 8
4 7 4 8 7 8 8 7 7 8 7 6 5 5 5 6 5 6 6 6 6 6 4 3 7 4 8 7 7 9 9 8 6 12 8 6 8 8 7 6 5 6 9
8 8 6 9 2 7 9 9 8 8 9 8 6 6 7 6 6 6 6 6 6 6 5 4 6 5 6 6 7 7 6 6 8 7 10 7 7 5 6 6 5 7 7
5 5 6 5 4 4 4 6 7 8 7 9 9 7 6 6 7 7 7 8 8 7 6 5 5 4 8 7 5 7 7 7 8 8 8 8 8 7 6 6 6 7 7
5 6 5 5 5 5 6 7 8 8 8 8 9 8 7 6 6 7 6 6 6 7 8 7 6 7 6 6 4 5 4 6 7 8 8 7 7 7 8 6 8 6 8
7 8 7 6 6 6 6 6 6 7 7 7 7 8 8 5 6 7 7 6 6 6 6 6 7 6 4 4 6 7 6 6 8 8 8 8 10 6 6 7 7 6 6
7 8 8 8 8 7 7 7 7 7 8 9 9 8 9 9 7 7 8 7 7 7 7 6 7 4 5 6 0 4 7 8 10 8 9 10 10 8 5 7 7 7 9
7 8 8 9 9 9 9 8 7 6 7 7 8 9 9 8 6 6 8 8 7 8 8 8 8 7 4 5 6 5 5 7 5 5 8 10 9 8 7 5 6 8 9
8 8 9 9 10 11 11 10 9 7 8 8 8 8 8 9 7 3 6 8 8 10 9 9 9 9 1 3 6 6 6 7 3 5 6 9 9 10 9 5 5 6 8
9 8 9 10 10 10 11 12 9 7 9 8 9 9 9 10 7 7 3 7 8 9 10 10 9 10 3 8 9 7 8 7 6 6 7 9 9 9 11 9 8 8 8
9 9 10 9 9 11 10 8 8 9 8 9 9 10 11 8 9 8 1 7 8 7 8 9 8 3 7 9 9 9 9 6 6 7 7 7 7 9 9 8 10 9 10
12 12 12 11 8 8 8 8 8 7 7 9 8 9 8 8 5 9 8 8 6 7 9 7 8 6 6 7 8 12 12 8 7 7 8 8 7 7 8 9 11 11 11
13 14 13 12 9 7 6 7 7 7 6 8 8 9 9 8 8 6 9 8 8 7 8 8 9 11 8 8 10 11 8 6 7 7 7 9 8 7 9 10 12 15 15
12 12 10 9 8 7 6 6 6 7 8 8 9 10 10 10 9 7 7 6 6 6 7 7 6 7 8 8 6 8 7 7 6 7 8 8 9 7 10 9 10 8 9
10 9 10 8 8 9 8 8 8 9 8 10 11 10 11 11 9 4 4 8 8 7 9 8 8 7 6 6 6 8 8 7 7 7 6 7 7 8 10 10 8 8 10
7 9 8 8 8 9 10 10 6 11 12 12 15 12 12 13 16 17 14 8 9 5 4 7 8 8 9 8 9 8 8 7 7 6 7 6 7 7 7 9 9 8 11
6 9 8 8 9 9 9 9 10 8 11 14 14 15 12 17 17 17 12 11 10 6 6 9 9 8 7 8 9 9 10 8 8 5 7 8 7 7 7 7 10 8 9
9 8 8 8 9 9 8 8 7 9 10 10 9 8 9 12 13 12 11 7 7 7 7 9 9 8 7 9 9 9 8 6 6 6 7 7 8 8 7 8 7 10 9
9 7 8 7 8 9 8 7 7 7 8 8 8 7 7 9 12 13 8 6 8 8 6 7 7 7 8 7 8 6 6 6 5 5 6 7 7 7 8 8 9 8 8
7 9 8 6 7 7 5 5 5 6 6 5 5 6 7 5 5 6 4 3 4 4 4 5 6 6 5 5 1 3 2 5 4 5 6 7 7 7 8 8 9 9 9
5 6 6 5 5 5 6 6 5 4 5 5 5 4 7 4 6 5 6 6 5 5 5 4 4 4 4 3 2 3 5 5 5 6 6 7 7 8 8 8 9 9 8
5 4 5 5 5 6 6 5 6 6 6 6 6 6 8 6 7 6 6 6 6 5 5 5 4 4 4 4 5 5 5 6 6 6 7 7 8 8 8 9 9 8 8
5 5 5 5 6 6 6 6 6 6 7 7 7 7 7 6 5 6 6 6 6 6 5 5 5 5 5 5 5 5 6 6 7 6 7 7 7 7 8 9 8 8 6
4 5 6 7 6 5 5 5 6 7 7 7 7 7 7 8 8 8 8 7 7 6 4 5 5 8 7 6 5 5 5 7 6 6 8 6 7 7 7 7 7 8 5
7 6 6 6 6 6 6 5 6 7 7 8 8 7 7 8 8 8 8 9 8 8 8 7 6 6 8 11 10 12 9 8 8 7 5 7 8 8 6 4 4 2 0
6 7 6 7 7 7 7 7 7 7 8 7 8 8 8 8 8 9 8 9 7 7 8 7 9 13 13 10 13 11 9 9 8 9 5 4 4 3 1 1 2 2 3
Wind_Direction
47 41 28 23 21 26 22 15 16 10 12 11 6 16 27 20 14 3 353 345 272 217 234 275 267 246 228 221 212 222 220 216 242 268 275 260 258 267 273 274 256 234 193
36 70 46 48 10 359 2 358 13 8 7 359 356 5 26 30 21 7 1 347 328 311 277 248 266 252 238 218 225 225 231 220 225 262 289 271 256 260 269 262 249 234 236
20 34 19 39 343 3 353 332 7 10 358 0 6 357 357 5 14 4 354 356 353 328 331 259 252 253 237 217 203 225 235 245 237 247 272 266 269 254 241 239 233 232 235
8 11 7 7 346 359 302 321 358 1 359 354 2 352 351 357 11 7 3 355 355 352 347 328 295 242 259 251 228 243 245 247 249 244 259 277 273 271 256 248 216 209 216
3 17 13 1 340 352 358 347 342 339 348 338 346 346 348 351 16 355 352 352 349 344 342 342 340 326 298 268 250 223 220 237 252 258 258 253 255 249 252 250 248 223 201
354 345 344 343 335 336 337 342 334 335 336 328 332 335 331 331 29 358 335 333 332 329 334 340 339 322 310 260 239 240 249 261 262 262 260 259 264 250 263 260 254 222 223
335 339 333 324 315 326 327 317 320 326 329 337 330 321 313 312 355 346 333 317 310 309 311 323 321 338 308 328 284 251 247 232 236 276 271 272 279 272 273 262 252 245 251
316 322 323 319 318 319 312 312 318 318 314 308 307 306 312 304 302 317 317 295 297 299 300 302 302 302 292 306 297 288 280 277 261 242 243 267 273 288 266 281 289 275 274
313 314 321 314 313 314 312 315 310 299 302 303 304 303 296 297 308 312 311 305 299 293 292 292 288 287 235 250 272 277 280 277 170 286 315 306 294 273 255 270 241 231 244
314 310 308 309 310 309 307 303 303 294 294 301 303 304 301 297 308 302 327 304 299 298 294 283 248 267 165 224 260 267 269 278 279 277 285 285 272 264 218 226 242 247 245
312 309 301 304 308 305 302 294 293 292 295 294 300 299 300 301 303 302 184 306 302 305 296 294 294 193 258 245 260 266 267 316 282 267 269 269 273 275 266 233 237 234 242
316 309 304 306 306 304 298 294 296 296 298 304 297 291 293 306 297 298 281 231 293 280 281 291 303 2 286 275 284 280 282 285 267 267 270 270 268 264 274 273 260 248 243
314 313 314 316 315 319 317 314 307 305 301 299 300 296 302 307 304 285 277 304 301 262 270 287 305 291 252 264 250 252 250 243 253 263 274 284 292 295 289 273 266 271 264
308 310 313 317 331 318 313 295 300 300 301 301 297 296 300 303 301 300 308 325 296 274 268 275 286 298 281 280 277 255 227 246 264 271 275 284 287 287 280 280 278 269 274
311 318 323 325 322 313 303 298 299 292 296 296 291 295 294 289 293 332 296 302 297 303 315 286 278 268 279 287 284 280 273 264 263 271 273 279 287 293 292 291 277 270 263
325 313 318 316 314 305 309 306 269 253 278 277 273 262 284 277 290 285 286 271 263 261 255 262 269 277 280 274 270 270 263 251 252 257 265 267 272 278 279 285 283 275 279
311 298 307 294 304 309 306 298 301 291 262 269 266 272 251 261 281 286 281 265 259 202 237 259 259 263 259 274 273 269 271 265 256 251 261 267 266 269 265 273 284 276 275
308 286 305 311 302 298 290 285 284 290 306 309 291 278 274 258 252 255 255 244 263 204 249 261 262 269 254 249 249 261 261 251 258 254 255 266 268 268 273 275 270 277 276
315 306 307 302 297 292 288 282 284 286 290 288 294 294 287 265 267 262 235 245 275 286 279 251 260 263 264 264 261 244 241 247 253 264 266 265 273 280 274 272 277 267 266
312 298 291 305 311 309 295 293 288 283 290 317 337 357 336 324 332 347 323 251 255 267 272 273 282 274 299 303 296 316 285 277 285 272 267 271 275 275 277 280 279 280 277
310 311 311 315 334 336 345 353 5 359 343 347 347 344 332 323 358 24 23 18 12 10 359 357 2 358 349 333 318 296 298 311 296 284 276 272 272 273 277 282 283 279 276
331 336 347 358 355 2 360 7 5 4 5 2 0 354 357 30 22 14 10 4 356 353 353 343 351 340 329 317 321 311 302 294 284 280 281 281 281 280 279 275 280 282 275
357 2 7 19 12 13 22 15 17 15 21 24 22 17 12 3 4 359 355 347 355 8 351 350 343 332 329 327 324 310 296 292 288 284 277 281 277 273 273 276 279 278 266
18 28 33 42 31 19 24 7 22 42 35 37 21 13 1 351 357 6 4 352 353 1 341 339 338 337 333 328 316 309 298 299 293 276 274 270 275 268 263 268 271 272 263
18 19 23 20 28 37 26 35 29 13 23 16 14 13 5 3 5 6 6 359 355 1 358 349 350 348 337 341 347 356 337 311 312 294 278 269 271 270 262 264 266 276 299
19 29 34 31 28 24 22 24 21 19 19 16 16 15 10 13 10 9 1 0 349 351 352 359 356 1 2 5 5 344 328 330 345 328 312 307 321 319 318 352 49 30 57